Torna al catalogo

AEROCUBE 18A

AttivoScienzaSSO
NORAD 63220·PAYLOAD·🇺🇸 United States

Lanciato Mar 15, 2025 da Vandenberg Space Force Base

Loading…

Prossimi Passaggi (prossime 24 ore)

TLE

AggiornatoSource: Space-Track

Epoca: Sep 14, 2026, 11:14 UTC

1 63220U 25052L   26257.46813639  .00004669  00000-0  18810-3 0  9995
2 63220  97.3822 149.7865 0004670 147.0675 213.0855 15.25329753 83505

Traccia AEROCUBE 18A in tempo reale con AllMySat

Download on the App Store